| time (UTC) | temp C | wind direction | speed KPH | gust KPH | rain 1hr cm | rain 24hr cm | rain mn cm | humidity % | barometer mb |
| 20260508054559 | 6 | 233 | 0.0 | 1.6 | 0.00 | 0.00 | 0.00 | 80 | 1013.3 |
| 20260508053120 | 6 | 233 | 0.0 | 3.2 | 0.00 | 0.00 | 0.00 | 80 | 1013.5 |
| 20260508051556 | 6 | 233 | 3.2 | 6.4 | 0.00 | 0.00 | 0.00 | 80 | 1013.8 |
| 20260508050055 | 6 | 325 | 0.0 | 3.2 | 0.00 | 0.00 | 0.00 | 79 | 1013.6 |
| 20260508044557 | 6 | 327 | 0.0 | 1.6 | 0.00 | 0.00 | 0.00 | 78 | 1013.6 |
| 20260508043100 | 6 | 327 | 1.6 | 3.2 | 0.00 | 0.00 | 0.00 | 78 | 1013.6 |
| 20260508041612 | 6 | 327 | 0.0 | 0.0 | 0.00 | 0.00 | 0.00 | 80 | 1013.3 |
| 20260508040105 | 5 | 327 | 0.0 | 0.0 | 0.00 | 0.00 | 0.00 | 77 | 1013.4 |
| 20260508034547 | 6 | 327 | 0.0 | 0.0 | 0.00 | 0.00 | 0.00 | 77 | 1013.3 |
| 20260508033047 | 6 | 327 | 0.0 | 1.6 | 0.00 | 0.00 | 0.00 | 77 | 1013.3 |
| 20260508031546 | 6 | 327 | 0.0 | 1.6 | 0.00 | 0.00 | 0.00 | 77 | 1013.2 |
| 20260508030045 | 6 | 327 | 0.0 | 0.0 | 0.00 | 0.00 | 0.00 | 74 | 1013.4 |
| 20260508024550 | 6 | 327 | 0.0 | 0.0 | 0.00 | 0.00 | 0.00 | 74 | 1013.4 |
| 20260508023044 | 6 | 327 | 0.0 | 0.0 | 0.00 | 0.00 | 0.00 | 73 | 1013.3 |
| 20260508021544 | 7 | 327 | 0.0 | 3.2 | 0.00 | 0.00 | 0.00 | 71 | 1013.3 |
| 20260508020048 | 7 | 327 | 0.0 | 0.0 | 0.00 | 0.00 | 0.00 | 70 | 1013.2 |
| 20260508014543 | 7 | 327 | 0.0 | 0.0 | 0.00 | 0.00 | 0.00 | 68 | 1013.1 |
| 20260508013043 | 8 | 327 | 0.0 | 0.0 | 0.00 | 0.00 | 0.00 | 68 | 1013.0 |
| 20260508011551 | 8 | 327 | 0.0 | 0.0 | 0.00 | 0.00 | 0.00 | 67 | 1012.9 |
| 20260508010041 | 9 | 327 | 0.0 | 3.2 | 0.00 | 0.00 | 0.00 | 63 | 1012.8 |
| 20260508004544 | 10 | 328 | 1.6 | 8.0 | 0.00 | 0.00 | 0.00 | 60 | 1012.7 |
| 20260508003041 | 10 | 315 | 4.8 | 8.0 | 0.00 | 0.00 | 0.00 | 59 | 1012.5 |
| 20260508001542 | 11 | 319 | 3.2 | 6.4 | 0.00 | 0.00 | 0.00 | 58 | 1012.3 |
| 20260508000039 | 11 | 306 | 1.6 | 8.0 | 0.00 | 0.00 | 0.00 | 55 | 1012.1 |
| 20260507234539 | 11 | 306 | 4.8 | 8.0 | 0.00 | 0.00 | 0.00 | 53 | 1011.9 |
| 20260507233054 | 11 | 286 | 1.6 | 9.7 | 0.00 | 0.00 | 0.00 | 53 | 1011.9 |
| 20260507231539 | 12 | 277 | 6.4 | 12.9 | 0.00 | 0.00 | 0.00 | 52 | 1011.8 |
| 20260507230037 | 12 | 274 | 8.0 | 14.5 | 0.00 | 0.00 | 0.00 | 49 | 1011.9 |
| 20260507224541 | 12 | 331 | 6.4 | 17.7 | 0.00 | 0.00 | 0.00 | 51 | 1011.8 |
| 20260507223037 | 12 | 158 | 4.8 | 12.9 | 0.00 | 0.00 | 0.00 | 52 | 1011.8 |
| 20260507221537 | 13 | 300 | 9.7 | 16.1 | 0.00 | 0.00 | 0.00 | 51 | 1011.7 |
| 20260507220035 | 13 | 272 | 8.0 | 16.1 | 0.00 | 0.00 | 0.00 | 50 | 1011.4 |
| 20260507214536 | 13 | 299 | 6.4 | 14.5 | 0.00 | 0.00 | 0.00 | 48 | 1011.2 |
| 20260507213039 | 13 | 281 | 3.2 | 16.1 | 0.00 | 0.00 | 0.00 | 49 | 1011.0 |
| 20260507211534 | 13 | 346 | 8.0 | 17.7 | 0.00 | 0.00 | 0.00 | 48 | 1010.7 |
| 20260507210040 | 13 | 273 | 6.4 | 12.9 | 0.00 | 0.00 | 0.00 | 49 | 1010.9 |
| 20260507204533 | 14 | 286 | 6.4 | 11.3 | 0.00 | 0.00 | 0.00 | 49 | 1010.6 |
| 20260507203034 | 13 | 317 | 8.0 | 20.9 | 0.00 | 0.00 | 0.00 | 47 | 1010.7 |
| 20260507201529 | 14 | 283 | 6.4 | 16.1 | 0.00 | 0.00 | 0.00 | 47 | 1010.8 |
| 20260507200028 | 15 | 279 | 4.8 | 11.3 | 0.00 | 0.00 | 0.00 | 48 | 1011.0 |
| 20260507194550 | 15 | 321 | 6.4 | 17.7 | 0.00 | 0.00 | 0.00 | 48 | 1011.1 |
| 20260507193029 | 15 | 306 | 6.4 | 11.3 | 0.00 | 0.00 | 0.00 | 47 | 1011.2 |
| 20260507191532 | 15 | 283 | 9.7 | 17.7 | 0.00 | 0.00 | 0.00 | 46 | 1011.3 |
| 20260507190028 | 15 | 218 | 9.7 | 17.7 | 0.00 | 0.00 | 0.00 | 47 | 1011.3 |
| 20260507184533 | 15 | 252 | 8.0 | 24.1 | 0.00 | 0.00 | 0.00 | 47 | 1011.1 |
| 20260507183035 | 14 | 302 | 6.4 | 14.5 | 0.00 | 0.00 | 0.00 | 49 | 1011.2 |
| 20260507181521 | 14 | 221 | 8.0 | 16.1 | 0.00 | 0.00 | 0.00 | 48 | 1011.3 |
| 20260507180029 | 15 | 281 | 8.0 | 14.5 | 0.00 | 0.00 | 0.00 | 50 | 1011.5 |
| 20260507174517 | 14 | 261 | 8.0 | 19.3 | 0.00 | 0.00 | 0.00 | 51 | 1011.6 |
| 20260507173020 | 13 | 232 | 6.4 | 12.9 | 0.00 | 0.00 | 0.00 | 53 | 1011.8 |
| 20260507171520 | 13 | 264 | 6.4 | 11.3 | 0.00 | 0.00 | 0.00 | 52 | 1011.9 |
| 20260507170009 | 13 | 270 | 4.8 | 12.9 | 0.00 | 0.00 | 0.00 | 50 | 1012.0 |
| 20260507164508 | 13 | 220 | 9.7 | 24.1 | 0.00 | 0.00 | 0.00 | 54 | 1012.0 |
| 20260507163011 | 13 | 242 | 9.7 | 14.5 | 0.00 | 0.00 | 0.00 | 52 | 1012.0 |
| 20260507161506 | 12 | 219 | 8.0 | 14.5 | 0.00 | 0.00 | 0.00 | 56 | 1012.0 |
| 20260507160005 | 13 | 228 | 12.9 | 20.9 | 0.00 | 0.00 | 0.00 | 56 | 1012.1 |
| 20260507154504 | 12 | 236 | 4.8 | 12.9 | 0.00 | 0.00 | 0.00 | 56 | 1012.2 |
| 20260507153001 | 13 | 265 | 4.8 | 11.3 | 0.00 | 0.00 | 0.00 | 59 | 1012.3 |
| 20260507151601 | 12 | 223 | 6.4 | 17.7 | 0.00 | 0.00 | 0.00 | 59 | 1012.5 |
| 20260507150101 | 12 | 250 | 4.8 | 11.3 | 0.00 | 0.00 | 0.00 | 59 | 1012.6 |
| 20260507144557 | 12 | 253 | 6.4 | 16.1 | 0.00 | 0.00 | 0.00 | 65 | 1012.7 |
| 20260507143049 | 11 | 266 | 4.8 | 11.3 | 0.00 | 0.00 | 0.00 | 64 | 1012.8 |
| 20260507141607 | 11 | 231 | 8.0 | 16.1 | 0.00 | 0.00 | 0.00 | 66 | 1013.0 |
| 20260507140048 | 11 | 205 | 8.0 | 14.5 | 0.00 | 0.00 | 0.00 | 69 | 1013.1 |
| 20260507134545 | 11 | 198 | 8.0 | 14.5 | 0.00 | 0.00 | 0.00 | 71 | 1013.2 |
| 20260507133042 | 10 | 204 | 6.4 | 16.1 | 0.00 | 0.00 | 0.00 | 74 | 1013.3 |
| 20260507131539 | 10 | 195 | 6.4 | 12.9 | 0.00 | 0.00 | 0.00 | 76 | 1013.4 |
| 20260507130038 | 9 | 238 | 8.0 | 14.5 | 0.00 | 0.00 | 0.00 | 77 | 1013.4 |
| 20260507124533 | 9 | 200 | 8.0 | 14.5 | 0.00 | 0.03 | 0.00 | 79 | 1013.4 |
| 20260507123038 | 8 | 202 | 6.4 | 14.5 | 0.00 | 0.03 | 0.00 | 81 | 1013.4 |
| 20260507121528 | 7 | 215 | 4.8 | 11.3 | 0.00 | 0.03 | 0.00 | 83 | 1013.4 |
| 20260507120039 | 6 | 237 | 3.2 | 6.4 | 0.00 | 0.03 | 0.00 | 88 | 1013.3 |
| 20260507114527 | 5 | 243 | 3.2 | 6.4 | 0.00 | 0.03 | 0.00 | 91 | 1013.4 |
| 20260507113038 | 5 | 333 | 0.0 | 0.0 | 0.00 | 0.03 | 0.00 | 94 | 1013.4 |
| 20260507111526 | 3 | 333 | 0.0 | 0.0 | 0.00 | 0.03 | 0.00 | 95 | 1013.2 |
| 20260507110030 | 3 | 333 | 0.0 | 0.0 | 0.00 | 0.03 | 0.00 | 95 | 1013.1 |
| 20260507104525 | 2 | 333 | 0.0 | 0.0 | 0.00 | 0.10 | 0.00 | 94 | 1013.1 |
| 20260507103023 | 2 | 333 | 0.0 | 0.0 | 0.00 | 0.10 | 0.00 | 94 | 1013.1 |
| 20260507101522 | 2 | 333 | 0.0 | 0.0 | 0.00 | 0.10 | 0.00 | 93 | 1012.9 |
| 20260507100030 | 3 | 333 | 0.0 | 0.0 | 0.00 | 0.10 | 0.00 | 94 | 1012.8 |
| 20260507094519 | 3 | 333 | 0.0 | 0.0 | 0.00 | 0.20 | 0.00 | 94 | 1012.7 |
| 20260507093018 | 3 | 333 | 0.0 | 0.0 | 0.00 | 0.20 | 0.00 | 94 | 1012.8 |
| 20260507091521 | 3 | 333 | 0.0 | 0.0 | 0.00 | 0.20 | 0.00 | 94 | 1012.8 |
| 20260507090016 | 3 | 333 | 0.0 | 0.0 | 0.00 | 0.20 | 0.00 | 93 | 1012.9 |
| 20260507084514 | 3 | 333 | 0.0 | 0.0 | 0.00 | 0.36 | 0.00 | 93 | 1012.8 |
| 20260507083014 | 3 | 333 | 0.0 | 0.0 | 0.00 | 0.36 | 0.00 | 92 | 1012.9 |
| 20260507081513 | 3 | 333 | 0.0 | 0.0 | 0.00 | 0.36 | 0.00 | 93 | 1012.9 |
| 20260507080012 | 3 | 333 | 0.0 | 0.0 | 0.00 | 0.36 | 0.00 | 92 | 1013.0 |
| 20260507074513 | 3 | 333 | 0.0 | 0.0 | 0.00 | 0.46 | 0.00 | 92 | 1013.0 |
| 20260507073009 | 3 | 333 | 0.0 | 0.0 | 0.00 | 0.46 | 0.00 | 91 | 1013.0 |
| 20260507071506 | 3 | 333 | 0.0 | 0.0 | 0.00 | 0.46 | 0.00 | 90 | 1013.0 |
| 20260507070009 | 4 | 333 | 0.0 | 0.0 | 0.00 | 0.46 | 0.00 | 89 | 1012.9 |
| 20260507064502 | 5 | 333 | 0.0 | 0.0 | 0.00 | 0.56 | 0.00 | 89 | 1013.1 |
| 20260507063117 | 5 | 333 | 0.0 | 0.0 | 0.00 | 0.56 | 0.00 | 90 | 1013.2 |
| 20260507061558 | 5 | 333 | 0.0 | 0.0 | 0.00 | 0.56 | 0.00 | 88 | 1013.3 |
| 20260507060054 | 5 | 333 | 0.0 | 0.0 | 0.00 | 0.56 | 0.00 | 87 | 1013.4 |